User: anonymous   Login
Location: Boiro
(42.6475°N, 8.8834°W)
Time: 20:56:40
(UTC+01:00)
Language:

ITUPSAT 1 - Orbit

View from above orbital plane
View from above orbital plane
View from above satellite
View from above satellite

Ground track
Ground track

The orbit data is extracted from the following two-line orbital elements,

1 35935U 09051E   22019.55653579  .00000387  00000-0  99385-4 0  9995
2 35935  98.5886 233.0060 0008462 152.8208 207.3433 14.55828398654214
Epoch (UTC): 19 January 2022 13:21:24
Eccentricity: 0.0008462
inclination: 98.5886°
perigee height: 700 km
apogee height: 712 km
right ascension of ascending node: 233.0060°
argument of perigee: 152.8208°
revolutions per day: 14.55828398
mean anomaly at epoch: 207.3433°
orbit number at epoch: 65421

The dashed part of the orbit path shows where the satellite is in the earth's shadow,  

DLR